Location: West Cummington
(42.4920°N, 72.9680°W)
Time: 23:24:20
(UTC-05:00)

Cosmos 2221 - Visible Passes

Search period start: 22 December 2014 00:00
Search period end: 01 January 2015 00:00
Orbit: 596 x 622 km, 82.5° (Epoch: 21 December)

Date Brightness Start Highest point End Pass type
(mag) Time Alt. Az. Time Alt. Az. Time Alt. Az.
22 Dec 5.4 06:11:20 10° SE 06:14:13 18° E 06:17:06 10° NE visible
22 Dec 2.6 17:53:51 10° N 17:58:01 50° ENE 18:02:10 10° SSE visible
22 Dec 5.5 19:33:07 10° NW 19:35:12 13° W 19:37:16 10° WSW visible
23 Dec 4.7 06:24:29 10° SSE 06:28:14 29° E 06:32:00 10° NNE visible
23 Dec 2.4 18:07:57 10° N 18:12:15 89° ENE 18:16:31 10° S visible
24 Dec 3.5 06:38:07 10° S 06:42:19 51° E 06:46:31 10° NNE visible
24 Dec 3.3 18:22:15 10° NNW 18:26:24 51° W 18:30:32 10° S visible
25 Dec 3.6 16:59:23 10° NNE 17:02:49 23° ENE 17:06:14 10° SE visible
25 Dec 4.5 18:36:46 10° NNW 18:40:28 29° W 18:44:10 10° SSW visible
26 Dec 5.6 05:31:20 10° ESE 05:33:31 14° E 05:35:41 10° NE visible
26 Dec 3.0 17:13:08 10° N 17:17:09 38° ENE 17:21:09 10° SSE visible
26 Dec 5.3 18:51:40 10° NW 18:54:28 17° W 18:57:16 10° SW visible
27 Dec 5.0 05:44:04 10° SE 05:47:28 23° E 05:50:53 10° NE visible
27 Dec 2.4 17:27:07 10° N 17:31:23 69° E 17:35:39 10° SSE visible
28 Dec 4.0 05:57:29 10° SSE 06:01:30 39° E 06:05:31 10° NNE visible
28 Dec 2.9 17:41:17 10° NNW 17:45:33 67° W 17:49:48 10° S visible
29 Dec 2.8 06:11:19 10° S 06:15:36 70° E 06:19:53 10° NNE visible
29 Dec 4.1 17:55:40 10° NNW 17:59:38 37° W 18:03:35 10° SSW visible
30 Dec 5.9 04:51:59 10° E 04:52:44 10° E 04:53:29 10° ENE visible
30 Dec 2.5 06:25:29 10° SSW 06:29:46 66° W 06:34:03 10° N visible
30 Dec 5.1 18:10:20 10° NW 18:13:39 22° W 18:16:57 10° SW visible
31 Dec 5.3 05:03:43 10° SE 05:06:39 18° E 05:09:34 10° NE visible
31 Dec 3.0 06:39:59 10° SW 06:43:59 37° WNW 06:48:00 10° N visible
31 Dec 5.7 18:25:36 10° WNW 18:27:35 13° W 18:29:33 10° WSW visible
